Location: Knowlton
(51.2333°N, 1.2667°E)
Time: 10:27:45
(UTC+00:00)

Cosmos 1842 Rocket - Pass Details

Date: 18 April 2021
Orbit: 606 x 633 km, 82.5° (Epoch: 16 May)

Event Time Altitude Azimuth Distance (km) Brightness Sun altitude
Exits shadow 21:49:34 42° 81° (E) 900 4.1 -22.0°
Drops below altitude 10° 21:53:31 10° 22° (NNE) 2,022 6.6 -22.4°
Sets 21:55:51 0° 16° (NNE) 2,938 7.6 -22.5°
